| time (UTC) | temp F | wind direction | speed MPH | gust MPH | rain 1hr in | rain 24hr in | rain mn in | humidity % | barometer mb |
| 20260506154534 | 55 | 26 | 4.0 | 8.0 | 0.00 | 0.08 | 0.01 | 79 | 1014.7 |
| 20260506154034 | 54 | 38 | 3.0 | 8.0 | 0.00 | 0.08 | 0.01 | 80 | 1014.7 |
| 20260506153601 | 54 | 56 | 4.0 | 8.0 | 0.00 | 0.08 | 0.01 | 80 | 1014.7 |
| 20260506153040 | 54 | 309 | 2.0 | 7.0 | 0.00 | 0.08 | 0.01 | 81 | 1014.8 |
| 20260506152520 | 54 | 36 | 3.0 | 7.0 | 0.00 | 0.08 | 0.01 | 80 | 1014.8 |
| 20260506152020 | 54 | 288 | 4.0 | 7.0 | 0.00 | 0.08 | 0.01 | 80 | 1014.7 |
| 20260506151537 | 54 | 12 | 4.0 | 9.0 | 0.00 | 0.08 | 0.01 | 79 | 1014.7 |
| 20260506151038 | 54 | 340 | 4.0 | 9.0 | 0.00 | 0.08 | 0.01 | 79 | 1014.8 |
| 20260506150538 | 54 | 316 | 3.0 | 9.0 | 0.00 | 0.08 | 0.01 | 79 | 1014.8 |
| 20260506150039 | 54 | 333 | 3.0 | 7.0 | 0.00 | 0.08 | 0.01 | 80 | 1014.8 |
| 20260506145539 | 54 | 7 | 3.0 | 12.0 | 0.00 | 0.08 | 0.01 | 79 | 1014.8 |
| 20260506145031 | 54 | 298 | 4.0 | 12.0 | 0.00 | 0.08 | 0.01 | 78 | 1014.9 |
| 20260506144600 | 55 | 347 | 5.0 | 10.0 | 0.00 | 0.08 | 0.01 | 78 | 1014.8 |
| 20260506144041 | 55 | 337 | 5.0 | 15.0 | 0.00 | 0.08 | 0.01 | 79 | 1014.9 |
| 20260506143540 | 55 | 20 | 6.0 | 15.0 | 0.00 | 0.08 | 0.01 | 81 | 1015.0 |
| 20260506143040 | 54 | 348 | 5.0 | 12.0 | 0.00 | 0.08 | 0.01 | 79 | 1015.0 |
| 20260506142540 | 55 | 330 | 3.0 | 8.0 | 0.00 | 0.08 | 0.01 | 79 | 1015.0 |
| 20260506142019 | 55 | 7 | 3.0 | 12.0 | 0.00 | 0.08 | 0.01 | 76 | 1015.0 |
| 20260506141520 | 56 | 29 | 4.0 | 8.0 | 0.00 | 0.08 | 0.01 | 73 | 1015.0 |
| 20260506141052 | 56 | 350 | 4.0 | 8.0 | 0.00 | 0.08 | 0.01 | 72 | 1014.9 |
| 20260506140552 | 56 | 351 | 3.0 | 7.0 | 0.00 | 0.08 | 0.01 | 71 | 1014.9 |
| 20260506140030 | 56 | 302 | 3.0 | 5.0 | 0.00 | 0.08 | 0.01 | 72 | 1015.0 |
| 20260506135530 | 56 | 301 | 2.0 | 4.0 | 0.00 | 0.08 | 0.01 | 73 | 1015.0 |
| 20260506135032 | 55 | 299 | 2.0 | 7.0 | 0.00 | 0.08 | 0.01 | 75 | 1015.1 |
| 20260506134533 | 55 | 283 | 2.0 | 4.0 | 0.00 | 0.08 | 0.01 | 75 | 1015.1 |
| 20260506134035 | 55 | 297 | 2.0 | 4.0 | 0.00 | 0.08 | 0.01 | 74 | 1015.1 |
| 20260506133536 | 55 | 301 | 2.0 | 6.0 | 0.00 | 0.08 | 0.01 | 76 | 1015.1 |
| 20260506133059 | 55 | 323 | 2.0 | 5.0 | 0.00 | 0.08 | 0.01 | 77 | 1015.0 |
| 20260506132537 | 55 | 305 | 3.0 | 5.0 | 0.00 | 0.08 | 0.01 | 76 | 1015.1 |
| 20260506132019 | 55 | 298 | 3.0 | 5.0 | 0.00 | 0.08 | 0.01 | 78 | 1015.2 |
| 20260506131520 | 54 | 283 | 2.0 | 5.0 | 0.00 | 0.08 | 0.01 | 78 | 1015.1 |
| 20260506131050 | 54 | 307 | 3.0 | 8.0 | 0.00 | 0.08 | 0.01 | 77 | 1015.1 |
| 20260506130530 | 54 | 312 | 3.0 | 8.0 | 0.00 | 0.08 | 0.01 | 77 | 1015.1 |
| 20260506130030 | 54 | 308 | 3.0 | 7.0 | 0.00 | 0.08 | 0.01 | 78 | 1015.1 |
| 20260506125531 | 54 | 292 | 4.0 | 7.0 | 0.00 | 0.28 | 0.01 | 77 | 1015.1 |
| 20260506125052 | 54 | 349 | 3.0 | 7.0 | 0.00 | 0.28 | 0.01 | 76 | 1015.0 |
| 20260506124530 | 54 | 337 | 4.0 | 8.0 | 0.00 | 0.28 | 0.01 | 76 | 1015.0 |
| 20260506124027 | 55 | 311 | 4.0 | 9.0 | 0.00 | 0.28 | 0.01 | 76 | 1015.0 |
| 20260506123529 | 55 | 12 | 4.0 | 11.0 | 0.00 | 0.28 | 0.01 | 75 | 1015.0 |
| 20260506123030 | 55 | 315 | 5.0 | 11.0 | 0.00 | 0.28 | 0.01 | 73 | 1014.9 |
| 20260506122531 | 56 | 304 | 5.0 | 10.0 | 0.00 | 0.28 | 0.01 | 72 | 1014.9 |
| 20260506122031 | 56 | 284 | 3.0 | 6.0 | 0.00 | 0.28 | 0.01 | 71 | 1014.9 |
| 20260506121532 | 56 | 293 | 3.0 | 7.0 | 0.00 | 0.28 | 0.01 | 70 | 1014.9 |
| 20260506121032 | 56 | 281 | 3.0 | 5.0 | 0.00 | 0.28 | 0.01 | 73 | 1014.8 |
| 20260506120533 | 55 | 296 | 2.0 | 5.0 | 0.00 | 0.28 | 0.01 | 73 | 1014.8 |
| 20260506120121 | 55 | 304 | 2.0 | 6.0 | 0.00 | 0.28 | 0.01 | 73 | 1014.9 |
| 20260506115557 | 55 | 297 | 3.0 | 6.0 | 0.00 | 0.39 | 0.01 | 73 | 1014.9 |
| 20260506115038 | 55 | 303 | 2.0 | 7.0 | 0.00 | 0.39 | 0.01 | 73 | 1014.9 |
| 20260506114520 | 55 | 289 | 3.0 | 7.0 | 0.00 | 0.39 | 0.01 | 72 | 1014.8 |
| 20260506114019 | 56 | 304 | 2.0 | 6.0 | 0.00 | 0.39 | 0.01 | 71 | 1014.9 |
| 20260506113534 | 56 | 305 | 3.0 | 6.0 | 0.00 | 0.39 | 0.01 | 71 | 1014.8 |
| 20260506113018 | 56 | 283 | 2.0 | 8.0 | 0.00 | 0.39 | 0.01 | 71 | 1014.8 |
| 20260506112519 | 56 | 284 | 4.0 | 8.0 | 0.00 | 0.39 | 0.01 | 70 | 1014.9 |
| 20260506112020 | 56 | 328 | 2.0 | 5.0 | 0.00 | 0.39 | 0.01 | 70 | 1014.9 |
| 20260506111520 | 56 | 287 | 2.0 | 7.0 | 0.00 | 0.39 | 0.01 | 70 | 1014.8 |
| 20260506111020 | 56 | 30 | 2.0 | 7.0 | 0.00 | 0.39 | 0.01 | 70 | 1014.9 |
| 20260506110558 | 56 | 44 | 2.0 | 8.0 | 0.00 | 0.39 | 0.01 | 70 | 1014.9 |
| 20260506110019 | 56 | 51 | 3.0 | 8.0 | 0.00 | 0.39 | 0.01 | 70 | 1014.9 |
| 20260506105519 | 56 | 307 | 1.0 | 7.0 | 0.00 | 0.55 | 0.01 | 71 | 1014.9 |
| 20260506105059 | 56 | 315 | 3.0 | 7.0 | 0.00 | 0.55 | 0.01 | 70 | 1014.9 |
| 20260506104521 | 56 | 257 | 3.0 | 6.0 | 0.00 | 0.55 | 0.01 | 70 | 1014.8 |
| 20260506104043 | 56 | 290 | 3.0 | 7.0 | 0.00 | 0.55 | 0.01 | 69 | 1014.8 |
| 20260506103519 | 56 | 285 | 3.0 | 10.0 | 0.00 | 0.55 | 0.01 | 69 | 1014.8 |
| 20260506103021 | 56 | 281 | 5.0 | 10.0 | 0.00 | 0.55 | 0.01 | 69 | 1014.8 |
| 20260506102520 | 56 | 309 | 3.0 | 8.0 | 0.00 | 0.55 | 0.01 | 70 | 1014.8 |
| 20260506102051 | 55 | 286 | 2.0 | 10.0 | 0.00 | 0.55 | 0.01 | 69 | 1014.8 |
| 20260506101529 | 55 | 7 | 6.0 | 10.0 | 0.00 | 0.55 | 0.01 | 69 | 1014.8 |
| 20260506101046 | 55 | 291 | 6.0 | 8.0 | 0.00 | 0.55 | 0.01 | 70 | 1014.9 |
| 20260506100529 | 55 | 291 | 5.0 | 10.0 | 0.00 | 0.55 | 0.01 | 70 | 1014.9 |
| 20260506100030 | 55 | 291 | 6.0 | 10.0 | 0.00 | 0.55 | 0.01 | 69 | 1014.9 |
| 20260506095532 | 55 | 307 | 4.0 | 8.0 | 0.00 | 0.55 | 0.01 | 68 | 1014.9 |
| 20260506095033 | 56 | 320 | 3.0 | 8.0 | 0.00 | 0.55 | 0.01 | 69 | 1014.8 |
| 20260506094556 | 56 | 309 | 4.0 | 9.0 | 0.00 | 0.55 | 0.01 | 68 | 1014.8 |
| 20260506094036 | 56 | 305 | 6.0 | 9.0 | 0.00 | 0.55 | 0.01 | 70 | 1014.9 |
| 20260506093537 | 56 | 300 | 3.0 | 7.0 | 0.00 | 0.55 | 0.01 | 72 | 1014.9 |
| 20260506093058 | 56 | 296 | 2.0 | 4.0 | 0.00 | 0.55 | 0.01 | 75 | 1014.9 |
| 20260506092538 | 55 | 274 | 2.0 | 5.0 | 0.00 | 0.55 | 0.01 | 75 | 1014.9 |
| 20260506092019 | 55 | 286 | 3.0 | 5.0 | 0.00 | 0.55 | 0.01 | 75 | 1014.9 |
| 20260506091521 | 55 | 272 | 3.0 | 5.0 | 0.00 | 0.55 | 0.01 | 76 | 1014.8 |
| 20260506091024 | 54 | 280 | 1.0 | 6.0 | 0.00 | 0.55 | 0.01 | 79 | 1014.9 |
| 20260506090518 | 54 | 311 | 3.0 | 6.0 | 0.00 | 0.55 | 0.01 | 77 | 1014.8 |
| 20260506090019 | 54 | 317 | 3.0 | 7.0 | 0.00 | 0.55 | 0.01 | 78 | 1014.9 |
| 20260506085521 | 54 | 317 | 1.0 | 5.0 | 0.00 | 0.55 | 0.01 | 83 | 1014.9 |
| 20260506085023 | 53 | 133 | 2.0 | 4.0 | 0.00 | 0.55 | 0.01 | 83 | 1014.9 |
| 20260506084525 | 52 | 21 | 2.0 | 3.0 | 0.00 | 0.55 | 0.01 | 84 | 1014.9 |
| 20260506084025 | 51 | 20 | 1.0 | 3.0 | 0.00 | 0.55 | 0.01 | 85 | 1014.9 |
| 20260506083525 | 51 | 20 | 1.0 | 3.0 | 0.00 | 0.55 | 0.01 | 86 | 1014.9 |
| 20260506083032 | 51 | 16 | 1.0 | 3.0 | 0.00 | 0.55 | 0.01 | 86 | 1014.9 |
| 20260506082551 | 50 | 12 | 1.0 | 3.0 | 0.00 | 0.55 | 0.01 | 86 | 1014.9 |
| 20260506082031 | 50 | 12 | 2.0 | 3.0 | 0.00 | 0.55 | 0.01 | 87 | 1014.9 |
| 20260506081532 | 50 | 24 | 2.0 | 3.0 | 0.00 | 0.55 | 0.01 | 88 | 1014.9 |
| 20260506081032 | 50 | 295 | 1.0 | 2.0 | 0.00 | 0.55 | 0.01 | 89 | 1014.9 |
| 20260506080534 | 49 | 295 | 0.0 | 2.0 | 0.00 | 0.55 | 0.01 | 89 | 1014.9 |
| 20260506073036 | 47 | 65 | 1.0 | 2.0 | 0.04 | 0.55 | 0.01 | 93 | 1014.8 |
| 20260506072537 | 47 | 65 | 1.0 | 2.0 | 0.04 | 0.55 | 0.01 | 93 | 1014.8 |
| 20260506072037 | 46 | 65 | 1.0 | 2.0 | 0.04 | 0.55 | 0.01 | 94 | 1014.8 |
| 20260506071559 | 46 | 65 | 1.0 | 2.0 | 0.04 | 0.55 | 0.01 | 94 | 1014.7 |
| 20260506071019 | 46 | 65 | 1.0 | 3.0 | 0.04 | 0.55 | 0.01 | 94 | 1014.8 |
| 20260506070521 | 46 | 70 | 1.0 | 3.0 | 0.04 | 0.55 | 0.01 | 94 | 1014.7 |
| 20260506062030 | 44 | 146 | 0.0 | 0.0 | 0.00 | 0.51 | 0.00 | 95 | 1014.6 |
| 20260506061531 | 44 | 146 | 0.0 | 0.0 | 0.00 | 0.51 | 0.00 | 95 | 1014.6 |
| 20260506061032 | 44 | 146 | 0.0 | 0.0 | 0.00 | 0.51 | 0.00 | 95 | 1014.6 |
| 20260506060533 | 44 | 147 | 0.0 | 2.0 | 0.00 | 0.51 | 0.00 | 95 | 1014.7 |
| 20260506051041 | 43 | 237 | 0.0 | 2.0 | 0.00 | 0.51 | 0.00 | 95 | 1014.2 |
| 20260506050534 | 43 | 237 | 0.0 | 2.0 | 0.00 | 0.51 | 0.00 | 95 | 1014.2 |
| 20260506045041 | 43 | 242 | 0.0 | 2.0 | 0.00 | 0.55 | 0.00 | 95 | 1014.2 |
| 20260506044533 | 43 | 242 | 1.0 | 3.0 | 0.00 | 0.55 | 0.00 | 95 | 1014.2 |
| 20260506044041 | 43 | 242 | 1.0 | 3.0 | 0.00 | 0.55 | 0.00 | 95 | 1014.3 |
| 20260506043535 | 43 | 241 | 1.0 | 3.0 | 0.00 | 0.55 | 0.00 | 95 | 1014.3 |
| 20260506043055 | 43 | 235 | 1.0 | 2.0 | 0.00 | 0.55 | 0.00 | 95 | 1014.2 |
| 20260506042535 | 43 | 233 | 1.0 | 2.0 | 0.00 | 0.55 | 0.00 | 95 | 1014.2 |
| 20260506042036 | 43 | 213 | 1.0 | 2.0 | 0.00 | 0.55 | 0.00 | 95 | 1014.2 |
| 20260506041518 | 43 | 212 | 1.0 | 2.0 | 0.00 | 0.55 | 0.00 | 95 | 1014.3 |
| 20260506041058 | 43 | 212 | 0.0 | 1.0 | 0.00 | 0.55 | 0.00 | 95 | 1014.2 |
| 20260506040519 | 43 | 211 | 0.0 | 0.0 | 0.00 | 0.55 | 0.00 | 95 | 1014.2 |
| 20260506040039 | 43 | 211 | 0.0 | 2.0 | 0.00 | 0.55 | 0.00 | 95 | 1014.2 |
| 20260506035533 | 43 | 211 | 0.0 | 2.0 | 0.00 | 0.59 | 0.00 | 95 | 1014.2 |
| 20260506035043 | 43 | 211 | 1.0 | 2.0 | 0.00 | 0.59 | 0.00 | 95 | 1014.2 |
| 20260506034543 | 43 | 209 | 0.0 | 1.0 | 0.00 | 0.59 | 0.00 | 94 | 1014.2 |
| 20260506034019 | 43 | 210 | 0.0 | 1.0 | 0.00 | 0.59 | 0.00 | 94 | 1014.2 |
| 20260506033522 | 43 | 210 | 0.0 | 1.0 | 0.00 | 0.59 | 0.00 | 95 | 1014.2 |
| 20260506033022 | 43 | 210 | 0.0 | 1.0 | 0.00 | 0.59 | 0.00 | 95 | 1014.2 |
| 20260506032521 | 43 | 210 | 0.0 | 1.0 | 0.00 | 0.59 | 0.00 | 95 | 1014.2 |
| 20260506032043 | 43 | 210 | 0.0 | 0.0 | 0.00 | 0.59 | 0.00 | 95 | 1014.3 |
| 20260506031523 | 43 | 210 | 0.0 | 1.0 | 0.00 | 0.59 | 0.00 | 95 | 1014.3 |
| 20260506031025 | 43 | 210 | 0.0 | 1.0 | 0.00 | 0.59 | 0.00 | 95 | 1014.3 |
| 20260506030534 | 43 | 210 | 1.0 | 1.0 | 0.00 | 0.59 | 0.00 | 95 | 1014.4 |
| 20260506030034 | 43 | 210 | 0.0 | 1.0 | 0.00 | 0.59 | 0.00 | 95 | 1014.4 |
| 20260506025555 | 43 | 210 | 0.0 | 0.0 | 0.00 | 0.59 | 0.00 | 94 | 1014.3 |
| 20260506025035 | 43 | 210 | 0.0 | 0.0 | 0.00 | 0.59 | 0.00 | 94 | 1014.3 |
| 20260506024536 | 43 | 210 | 0.0 | 0.0 | 0.00 | 0.59 | 0.00 | 94 | 1014.3 |
| 20260506024034 | 43 | 210 | 0.0 | 1.0 | 0.00 | 0.59 | 0.00 | 95 | 1014.3 |
| 20260506023537 | 43 | 210 | 0.0 | 1.0 | 0.00 | 0.59 | 0.00 | 95 | 1014.2 |
| 20260506023038 | 43 | 210 | 0.0 | 1.0 | 0.00 | 0.59 | 0.00 | 94 | 1014.3 |
| 20260506022519 | 43 | 210 | 0.0 | 2.0 | 0.00 | 0.59 | 0.00 | 94 | 1014.2 |
| 20260506022023 | 43 | 210 | 0.0 | 1.0 | 0.00 | 0.59 | 0.00 | 94 | 1014.2 |
| 20260506021544 | 43 | 210 | 0.0 | 1.0 | 0.00 | 0.59 | 0.00 | 94 | 1014.3 |
| 20260506021024 | 43 | 210 | 0.0 | 1.0 | 0.00 | 0.59 | 0.00 | 94 | 1014.3 |
| 20260506020526 | 43 | 210 | 0.0 | 1.0 | 0.00 | 0.59 | 0.00 | 94 | 1014.3 |
| 20260506020054 | 43 | 210 | 0.0 | 1.0 | 0.00 | 0.59 | 0.00 | 94 | 1014.3 |
| 20260506015555 | 43 | 210 | 0.0 | 0.0 | 0.00 | 0.59 | 0.00 | 94 | 1014.3 |
| 20260506015033 | 43 | 210 | 0.0 | 0.0 | 0.00 | 0.59 | 0.00 | 94 | 1014.4 |
| 20260506014534 | 43 | 210 | 0.0 | 2.0 | 0.00 | 0.59 | 0.00 | 94 | 1014.4 |
| 20260506014034 | 44 | 210 | 1.0 | 2.0 | 0.00 | 0.59 | 0.00 | 94 | 1014.4 |
| 20260506013533 | 44 | 210 | 0.0 | 0.0 | 0.00 | 0.59 | 0.00 | 94 | 1014.4 |
| 20260506013034 | 44 | 210 | 0.0 | 1.0 | 0.00 | 0.59 | 0.00 | 94 | 1014.4 |
| 20260506012535 | 44 | 210 | 0.0 | 1.0 | 0.00 | 0.59 | 0.00 | 94 | 1014.4 |
| 20260506012018 | 44 | 210 | 0.0 | 0.0 | 0.00 | 0.59 | 0.00 | 94 | 1014.4 |
| 20260506011519 | 44 | 210 | 0.0 | 0.0 | 0.00 | 0.59 | 0.00 | 94 | 1014.5 |
| 20260506011020 | 44 | 210 | 0.0 | 1.0 | 0.00 | 0.59 | 0.00 | 94 | 1014.6 |
| 20260506010521 | 44 | 210 | 0.0 | 1.0 | 0.00 | 0.59 | 0.00 | 94 | 1014.7 |
| 20260506010042 | 44 | 210 | 0.0 | 0.0 | 0.00 | 0.59 | 0.00 | 94 | 1014.7 |
| 20260506005523 | 44 | 210 | 0.0 | 0.0 | 0.00 | 0.59 | 0.00 | 94 | 1014.7 |
| 20260506005041 | 43 | 210 | 0.0 | 0.0 | 0.00 | 0.59 | 0.00 | 94 | 1014.8 |
| 20260506004520 | 43 | 210 | 0.0 | 0.0 | 0.00 | 0.59 | 0.00 | 94 | 1014.8 |
| 20260506004021 | 43 | 210 | 0.0 | 0.0 | 0.00 | 0.59 | 0.00 | 94 | 1014.9 |
| 20260506003523 | 43 | 210 | 0.0 | 1.0 | 0.00 | 0.59 | 0.00 | 94 | 1015.0 |
| 20260506003026 | 43 | 210 | 0.0 | 1.0 | 0.00 | 0.59 | 0.00 | 94 | 1015.0 |
| 20260506002554 | 43 | 210 | 0.0 | 1.0 | 0.00 | 0.59 | 0.00 | 94 | 1015.1 |
| 20260506002054 | 43 | 210 | 0.0 | 2.0 | 0.00 | 0.59 | 0.00 | 94 | 1015.0 |
| 20260506001549 | 43 | 210 | 1.0 | 2.0 | 0.00 | 0.59 | 0.00 | 94 | 1015.1 |
| 20260506001030 | 43 | 210 | 0.0 | 1.0 | 0.00 | 0.59 | 0.00 | 94 | 1015.1 |
| 20260506000533 | 43 | 210 | 0.0 | 1.0 | 0.00 | 0.59 | 0.00 | 94 | 1015.1 |
| 20260506000019 | 43 | 210 | 0.0 | 1.0 | 0.00 | 0.59 | 0.00 | 94 | 1015.1 |
| 20260505235522 | 43 | 210 | 0.0 | 1.0 | 0.00 | 0.59 | 0.00 | 94 | 1015.0 |
| 20260505235023 | 43 | 210 | 0.0 | 1.0 | 0.00 | 0.59 | 0.00 | 94 | 1015.0 |
| 20260505234543 | 43 | 210 | 0.0 | 1.0 | 0.00 | 0.59 | 0.00 | 93 | 1015.0 |
| 20260505234022 | 43 | 210 | 0.0 | 1.0 | 0.00 | 0.59 | 0.00 | 93 | 1014.9 |
| 20260505233525 | 43 | 210 | 0.0 | 1.0 | 0.00 | 0.59 | 0.00 | 93 | 1014.9 |
| 20260505233019 | 43 | 210 | 1.0 | 1.0 | 0.00 | 0.59 | 0.00 | 93 | 1015.0 |
| 20260505232519 | 43 | 210 | 0.0 | 1.0 | 0.00 | 0.59 | 0.00 | 93 | 1015.1 |
| 20260505232022 | 43 | 210 | 0.0 | 0.0 | 0.00 | 0.59 | 0.00 | 93 | 1015.1 |
| 20260505231526 | 43 | 210 | 0.0 | 0.0 | 0.00 | 0.59 | 0.00 | 93 | 1015.1 |
| 20260505231027 | 43 | 210 | 0.0 | 2.0 | 0.00 | 0.59 | 0.00 | 92 | 1015.1 |
| 20260505230529 | 43 | 210 | 1.0 | 2.0 | 0.00 | 0.59 | 0.00 | 92 | 1015.1 |
| 20260505230024 | 43 | 214 | 0.0 | 1.0 | 0.00 | 0.59 | 0.00 | 92 | 1015.1 |
| 20260505225525 | 44 | 214 | 0.0 | 1.0 | 0.00 | 0.59 | 0.00 | 92 | 1015.1 |
| 20260505225028 | 44 | 214 | 0.0 | 1.0 | 0.00 | 0.59 | 0.00 | 92 | 1015.1 |
| 20260505224550 | 44 | 214 | 0.0 | 2.0 | 0.00 | 0.59 | 0.00 | 92 | 1015.1 |
| 20260505224032 | 44 | 214 | 1.0 | 3.0 | 0.00 | 0.59 | 0.00 | 92 | 1015.1 |
| 20260505223533 | 44 | 214 | 2.0 | 5.0 | 0.00 | 0.59 | 0.00 | 92 | 1015.1 |
| 20260505223033 | 44 | 212 | 3.0 | 5.0 | 0.00 | 0.59 | 0.00 | 92 | 1015.2 |
| 20260505222603 | 44 | 220 | 1.0 | 2.0 | 0.00 | 0.59 | 0.00 | 92 | 1015.2 |
| 20260505222042 | 44 | 220 | 0.0 | 4.0 | 0.00 | 0.59 | 0.00 | 92 | 1015.2 |
| 20260505221534 | 44 | 220 | 0.0 | 4.0 | 0.00 | 0.59 | 0.00 | 92 | 1015.2 |
| 20260505221035 | 45 | 227 | 2.0 | 4.0 | 0.00 | 0.59 | 0.00 | 92 | 1015.3 |
| 20260505220537 | 45 | 288 | 0.0 | 2.0 | 0.00 | 0.59 | 0.00 | 92 | 1015.3 |
| 20260505220039 | 45 | 288 | 0.0 | 2.0 | 0.00 | 0.59 | 0.00 | 92 | 1015.3 |
| 20260505215521 | 45 | 288 | 2.0 | 2.0 | 0.00 | 0.59 | 0.12 | 92 | 1015.3 |
| 20260505215041 | 45 | 289 | 0.0 | 2.0 | 0.00 | 0.59 | 0.12 | 92 | 1015.3 |
| 20260505214525 | 45 | 289 | 0.0 | 2.0 | 0.00 | 0.59 | 0.12 | 92 | 1015.3 |
| 20260505214028 | 46 | 289 | 1.0 | 2.0 | 0.00 | 0.59 | 0.12 | 91 | 1015.4 |
| 20260505213519 | 46 | 289 | 0.0 | 2.0 | 0.00 | 0.59 | 0.12 | 92 | 1015.4 |
| 20260505213021 | 46 | 289 | 0.0 | 2.0 | 0.00 | 0.59 | 0.12 | 91 | 1015.4 |
| 20260505212520 | 46 | 289 | 0.0 | 1.0 | 0.00 | 0.59 | 0.12 | 91 | 1015.4 |
| 20260505212022 | 46 | 289 | 0.0 | 0.0 | 0.00 | 0.59 | 0.12 | 91 | 1015.4 |
| 20260505211526 | 46 | 289 | 0.0 | 1.0 | 0.00 | 0.59 | 0.12 | 91 | 1015.4 |
| 20260505211025 | 47 | 289 | 0.0 | 2.0 | 0.00 | 0.59 | 0.12 | 91 | 1015.4 |
| 20260505210554 | 47 | 289 | 0.0 | 2.0 | 0.00 | 0.59 | 0.12 | 91 | 1015.3 |
| 20260505210033 | 47 | 289 | 1.0 | 2.0 | 0.00 | 0.59 | 0.12 | 91 | 1015.4 |
| 20260505205536 | 47 | 289 | 1.0 | 2.0 | 0.00 | 0.59 | 0.12 | 91 | 1015.3 |
| 20260505205037 | 47 | 289 | 0.0 | 1.0 | 0.00 | 0.59 | 0.12 | 91 | 1015.4 |
| 20260505204559 | 47 | 289 | 0.0 | 2.0 | 0.00 | 0.59 | 0.12 | 91 | 1015.4 |
| 20260505204020 | 47 | 289 | 1.0 | 3.0 | 0.00 | 0.59 | 0.12 | 91 | 1015.3 |
| 20260505203521 | 47 | 289 | 1.0 | 3.0 | 0.00 | 0.59 | 0.12 | 91 | 1015.3 |
| 20260505203021 | 47 | 290 | 1.0 | 4.0 | 0.00 | 0.59 | 0.12 | 91 | 1015.3 |
| 20260505202521 | 47 | 294 | 2.0 | 4.0 | 0.00 | 0.59 | 0.12 | 91 | 1015.2 |
| 20260505202021 | 47 | 297 | 2.0 | 4.0 | 0.00 | 0.59 | 0.12 | 91 | 1015.2 |
| 20260505201521 | 47 | 244 | 2.0 | 3.0 | 0.00 | 0.59 | 0.12 | 91 | 1015.2 |
| 20260505201045 | 47 | 231 | 1.0 | 2.0 | 0.00 | 0.59 | 0.12 | 91 | 1015.1 |
| 20260505200546 | 47 | 231 | 1.0 | 2.0 | 0.00 | 0.59 | 0.12 | 91 | 1015.1 |
| 20260505200025 | 47 | 230 | 1.0 | 1.0 | 0.00 | 0.59 | 0.12 | 91 | 1015.1 |
| 20260505195524 | 47 | 230 | 0.0 | 2.0 | 0.00 | 0.59 | 0.12 | 91 | 1015.1 |
| 20260505195025 | 47 | 230 | 0.0 | 2.0 | 0.00 | 0.59 | 0.12 | 91 | 1015.0 |
| 20260505194526 | 48 | 230 | 1.0 | 2.0 | 0.00 | 0.59 | 0.12 | 91 | 1015.0 |
| 20260505194023 | 48 | 230 | 0.0 | 1.0 | 0.00 | 0.59 | 0.12 | 91 | 1015.0 |
| 20260505193525 | 48 | 230 | 1.0 | 2.0 | 0.00 | 0.59 | 0.12 | 91 | 1015.0 |
| 20260505193048 | 48 | 230 | 1.0 | 2.0 | 0.00 | 0.59 | 0.12 | 90 | 1014.9 |
| 20260505192527 | 48 | 230 | 0.0 | 2.0 | 0.00 | 0.59 | 0.12 | 90 | 1014.8 |
| 20260505192059 | 48 | 230 | 0.0 | 2.0 | 0.00 | 0.59 | 0.12 | 90 | 1014.8 |
| 20260505191520 | 48 | 230 | 0.0 | 1.0 | 0.00 | 0.59 | 0.12 | 90 | 1014.9 |
| 20260505191023 | 48 | 230 | 1.0 | 3.0 | 0.00 | 0.59 | 0.12 | 90 | 1014.8 |
| 20260505190545 | 48 | 230 | 2.0 | 4.0 | 0.00 | 0.59 | 0.12 | 89 | 1014.7 |
| 20260505190025 | 48 | 225 | 2.0 | 3.0 | 0.00 | 0.59 | 0.12 | 89 | 1014.7 |
| 20260505185524 | 48 | 249 | 1.0 | 3.0 | 0.00 | 0.59 | 0.12 | 89 | 1014.7 |
| 20260505185024 | 49 | 251 | 2.0 | 3.0 | 0.00 | 0.59 | 0.12 | 88 | 1014.7 |
| 20260505184524 | 49 | 234 | 2.0 | 3.0 | 0.00 | 0.59 | 0.12 | 88 | 1014.7 |
| 20260505184047 | 49 | 279 | 1.0 | 2.0 | 0.00 | 0.59 | 0.12 | 88 | 1014.6 |
| 20260505183506 | 49 | 280 | 1.0 | 3.0 | 0.00 | 0.59 | 0.12 | 88 | 1014.6 |
| 20260505181415 | 49 | 301 | 2.0 | 4.0 | 0.00 | 0.59 | 0.12 | 87 | 1014.5 |
| 20260505180915 | 49 | 300 | 2.0 | 4.0 | 0.00 | 0.59 | 0.12 | 87 | 1014.5 |
| 20260505180414 | 49 | 309 | 2.0 | 3.0 | 0.00 | 0.59 | 0.12 | 86 | 1014.4 |
| 20260505175915 | 49 | 313 | 2.0 | 5.0 | 0.00 | 0.59 | 0.12 | 86 | 1014.4 |
| 20260505175450 | 49 | 349 | 3.0 | 5.0 | 0.00 | 0.59 | 0.12 | 86 | 1014.4 |
| 20260505174928 | 50 | 294 | 3.0 | 6.0 | 0.00 | 0.59 | 0.12 | 85 | 1014.4 |
| 20260505174427 | 50 | 342 | 3.0 | 12.0 | 0.00 | 0.59 | 0.12 | 85 | 1014.4 |
| 20260505173945 | 50 | 300 | 3.0 | 12.0 | 0.00 | 0.59 | 0.12 | 84 | 1014.3 |
| 20260505173441 | 51 | 292 | 5.0 | 12.0 | 0.00 | 0.59 | 0.12 | 83 | 1014.4 |
| 20260505172917 | 51 | 318 | 5.0 | 12.0 | 0.00 | 0.59 | 0.12 | 83 | 1014.3 |
| 20260505172443 | 52 | 288 | 5.0 | 8.0 | 0.00 | 0.59 | 0.12 | 84 | 1014.4 |
| 20260505171921 | 52 | 304 | 2.0 | 5.0 | 0.00 | 0.59 | 0.12 | 85 | 1014.4 |
| 20260505171420 | 52 | 295 | 2.0 | 4.0 | 0.00 | 0.59 | 0.12 | 84 | 1014.5 |
| 20260505170919 | 52 | 285 | 3.0 | 4.0 | 0.00 | 0.59 | 0.12 | 84 | 1014.5 |
| 20260505170437 | 52 | 289 | 2.0 | 4.0 | 0.00 | 0.59 | 0.12 | 83 | 1014.5 |
| 20260505165933 | 52 | 297 | 2.0 | 4.0 | 0.00 | 0.59 | 0.12 | 82 | 1014.4 |
| 20260505165423 | 52 | 297 | 2.0 | 4.0 | 0.00 | 0.59 | 0.12 | 81 | 1014.5 |
| 20260505164920 | 52 | 313 | 2.0 | 3.0 | 0.00 | 0.59 | 0.12 | 81 | 1014.4 |
| 20260505164419 | 52 | 321 | 1.0 | 2.0 | 0.00 | 0.59 | 0.12 | 81 | 1014.4 |
| 20260505163945 | 52 | 321 | 1.0 | 2.0 | 0.00 | 0.59 | 0.12 | 82 | 1014.3 |
| 20260505163422 | 52 | 321 | 1.0 | 4.0 | 0.00 | 0.59 | 0.12 | 81 | 1014.3 |
| 20260505162921 | 52 | 321 | 2.0 | 4.0 | 0.04 | 0.59 | 0.12 | 80 | 1014.3 |
| 20260505162418 | 52 | 308 | 1.0 | 3.0 | 0.04 | 0.59 | 0.12 | 82 | 1014.3 |
| 20260505161916 | 52 | 307 | 1.0 | 3.0 | 0.04 | 0.59 | 0.12 | 82 | 1014.4 |
| 20260505161414 | 52 | 308 | 2.0 | 3.0 | 0.04 | 0.59 | 0.12 | 80 | 1014.4 |
| 20260505160915 | 52 | 2 | 2.0 | 5.0 | 0.04 | 0.59 | 0.12 | 81 | 1014.3 |
| 20260505160413 | 53 | 314 | 1.0 | 4.0 | 0.04 | 0.59 | 0.12 | 82 | 1014.3 |